Location: Poigny-la-Forêt
(48.6876°N, 1.7701°E)
Time: 20:30:24
(UTC+02:00)

ISS - Pass Details

Date: 27 March 2019
Orbit: 408 x 410 km, 51.6° (Epoch: 25 April)

Event Time Altitude Azimuth Distance (km) Brightness Sun altitude
Rises 20:06:24 0° 255° (WSW) 2,332 1.2 -9.1°
Reaches altitude 10° 20:08:30 10° 257° (WSW) 1,472 0.1 -9.4°
Maximum altitude 20:11:47 73° 342° (NNW) 433 -3.6 -9.9°
Enters shadow 20:15:00 11° 68° (ENE) 1,435 -1.5 -10.4°
